Location: *
(28.2408°N, 53.4600°E)
Time: 15:33:55
(UTC+00:00)

ATLAS 2AS CENTAUR R/B - Pass Details

Date: 22 September 2019
Orbit: 919 x 1292 km, 63.6° (Epoch: 21 September)

Event Time Altitude Azimuth Distance (km) Brightness Sun altitude
Rises 15:53:05 0° 328° (NNW) 4,101 6.4 -20.5°
Reaches altitude 10° 15:55:56 10° 326° (NNW) 3,084 5.7 -21.1°
Maximum altitude 16:03:12 68° 246° (WSW) 1,169 3.0 -22.6°
Enters shadow 16:08:23 18° 167° (SSE) 2,320 4.2 -23.8°
